Weather in Nauruzovo

Russia / Orenburg Oblast     53°17′27″N   54°09′08″E
temp.,
°C
wind,
m/s
gust,
m/s
humid.,
%
clouds,
%
prec.,
mm/h
press.,
hPa
HPBL,
m
5 december, sun
sun523:00+1ssw101997100 1.1 1014802
02:00+1ssw101898100 2.0 1014758
05:00+1ssw71598100 4.3 1013691
08:000sw51099100 4.3 1013592
11:00−1nw2598100 6.8 1015271
14:00−1wnw3595100 0.2 1016374
17:00−3wnw1196100 0.2 101827
20:00−3nw1197100 0.0 101925
6 december, mon
mon623:00−3n2395100 0.0 1018127
02:00−3n2295100 0.1 1019158
05:00−3n3595100 0.3 1019284
08:00−7n34956 0.0 102150
11:00−6n249419 0.0 1023104
14:00−5n249130 0.0 1024225
17:00−7n239452 0.0 102655
20:00−8n229436 0.0 102834
7 december, tue
tue723:00−9ne239591 0.0 102939
02:00−8ne2394100 0.0 1030116
05:00−8ne2388100 0.0 1031166
08:00−8ne248972 0.0 1032163
11:00−9ne24885 0.0 1034130
14:00−7ene23815 0.0 1034156
17:00−9ene229199 0.0 103522
20:00−10ene2291100 0.0 103529
8 december, wed
wed823:00−11e228894 0.0 103536
02:00−10ese238314 0.0 103441
05:00−10ese2882100 0.0 1034141
08:00−9se41084100 0.0 1034195
11:00−7se51190100 0.0 1034239
14:00−5se51195100 0.0 1033286
17:00−4sse51295100 0.0 1033337
20:00−4se51293100 0.0 1033270
9 december, thu
thu923:00−5se51293100 0.0 1033264
02:00−5se41195100 0.0 1033246
05:00−5se51192100 0.0 1033244
08:00−6se51190100 0.0 1032224
11:00−5se51285100 0.0 1032273
14:00−4se61482100 0.0 1031295
17:00−4se61582100 0.0 1030267
20:00−4se71679100 0.0 1029295